Olean, NY

11:27 PM EDT on September 22, 2017 (GMT -0400)
Cattaraugus County-Olean

Weather History for KOLE - March, 2014

Change the Weather History Date:

Sunday, March 16, 2014

  Actual Average (KBFD) Record (KBFD)
Temperature  
Mean Temperature 14 °F -  
Max Temperature 19 °F 39 °F 67 °F (2012)
Min Temperature 8 °F 21 °F -4 °F (1992)
Degree Days  
Heating Degree Days 52    
Moisture  
Dew Point 4 °F    
Average Humidity 66    
Maximum Humidity 85    
Minimum Humidity 45    
Precipitation  
Precipitation 0.00 in - - ()
Sea Level Pressure  
Sea Level Pressure 30.12 in    
Wind  
Wind Speed 7 mph (NNW)    
Max Wind Speed 12 mph    
Max Gust Speed 21 mph    
Visibility 9 miles    
Events Snow    
Averages and records for this station are not official NWS values.
T = Trace of Precipitation, MM = Missing Value Source: NWS Daily Summary

Daily Weather History Graph

Daily Weather History Graph

Search for Another Location

Airport or City:

Trip Planner

Search our weather history database for the weather conditions in past years. The results will help you decide how hot, cold, wet, or windy it might be!

Date:

Astronomy

Mar. 16, 2014 Rise Set
Actual Time 7:23 AM EDT 7:21 PM EDT
Civil Twilight 6:55 AM EDT 7:49 PM EDT
Nautical Twilight 6:23 AM EDT 8:21 PM EDT
Astronomical Twilight 5:50 AM EDT 8:54 PM EDT
Moon 7:37 PM EDT (3/16) 7:05 AM EDT (3/16)
Length of Visible Light 12h 53m
Length of Day
11h 57m
Full, 100% of the Moon is Illuminated
Mar 16
Full
Mar 16
Full
Mar 23
Last Quarter
Mar 30
New
Apr 7
First Quarter

Hourly Weather History & Observations

Time (EDT) Temp. Windchill Dew Point Humidity Pressure Visibility Wind Dir Wind Speed Gust Speed Precip Events Conditions
12:15 AM 19.4 °F 9.5 °F 12.2 °F 74% 30.05 in 10.0 mi WNW 8.1 mph - N/A   Overcast
12:35 AM 17.6 °F 7.3 °F 12.2 °F 79% 30.05 in 10.0 mi NW 8.1 mph 20.7 mph N/A   Mostly Cloudy
12:55 AM 17.6 °F 7.3 °F 12.2 °F 79% 30.06 in 10.0 mi WNW 8.1 mph - N/A   Overcast
1:15 AM 17.6 °F 7.3 °F 12.2 °F 79% 30.07 in 10.0 mi WNW 8.1 mph 17.3 mph N/A   Overcast
1:35 AM 17.6 °F 5.7 °F 8.6 °F 68% 30.07 in 10.0 mi WNW 10.4 mph 18.4 mph N/A   Mostly Cloudy
2:15 AM 15.8 °F 7.2 °F 8.6 °F 73% 30.08 in 10.0 mi WNW 5.8 mph - N/A   Clear
2:35 AM 14.0 °F 6.5 °F 8.6 °F 79% 30.09 in 10.0 mi WNW 4.6 mph - N/A   Mostly Cloudy
2:55 AM 14.0 °F 2.9 °F 8.6 °F 79% 30.08 in 10.0 mi West 8.1 mph - N/A   Overcast
3:15 AM 14.0 °F 3.9 °F 8.6 °F 79% 30.08 in 10.0 mi WNW 6.9 mph - N/A   Scattered Clouds
3:35 AM 14.0 °F 2.0 °F 6.8 °F 73% 30.07 in 10.0 mi WNW 9.2 mph - N/A   Clear
3:55 AM 14.0 °F 3.9 °F 5.0 °F 67% 30.08 in 10.0 mi WNW 6.9 mph - N/A   Clear
4:15 AM 12.2 °F 2.9 °F 5.0 °F 73% 30.08 in 10.0 mi WNW 5.8 mph - N/A   Clear
4:35 AM 12.2 °F 1.7 °F 5.0 °F 73% 30.10 in 10.0 mi NW 6.9 mph - N/A   Scattered Clouds
4:55 AM 12.2 °F 0.7 °F 5.0 °F 73% 30.10 in 10.0 mi WNW 8.1 mph - N/A   Mostly Cloudy
5:15 AM 12.2 °F 2.9 °F 6.8 °F 79% 30.11 in 7.0 mi WNW 5.8 mph - N/A Snow Light Snow
5:35 AM 12.2 °F 2.9 °F 6.8 °F 79% 30.11 in 5.0 mi NW 5.8 mph - N/A Snow Light Snow
5:55 AM 12.2 °F 2.9 °F 8.6 °F 85% 30.12 in 4.0 mi NNW 5.8 mph - N/A Snow Light Snow
6:15 AM 12.2 °F 0.7 °F 6.8 °F 79% 30.12 in 7.0 mi NW 8.1 mph - N/A Snow Light Snow
6:35 AM 12.2 °F 1.7 °F 6.8 °F 79% 30.11 in 5.0 mi NNW 6.9 mph - N/A Snow Light Snow
6:55 AM 12.2 °F 4.3 °F 6.8 °F 79% 30.12 in 7.0 mi NW 4.6 mph - N/A Snow Light Snow
7:15 AM 10.4 °F 4.0 °F 5.0 °F 79% 30.12 in 10.0 mi NW 3.5 mph - N/A Snow Light Snow
7:35 AM 10.4 °F - 5.0 °F 79% 30.13 in 10.0 mi Calm Calm - N/A   Scattered Clouds
7:55 AM 10.4 °F 4.0 °F 5.0 °F 79% 30.14 in 10.0 mi NW 3.5 mph - N/A Snow Light Snow
8:15 AM 10.4 °F - 6.8 °F 85% 30.15 in 3.0 mi Calm Calm - N/A Snow Light Snow
8:35 AM 12.2 °F 4.3 °F 8.6 °F 85% 30.16 in 4.0 mi WNW 4.6 mph - N/A Snow Light Snow
8:55 AM 12.2 °F 2.9 °F 8.6 °F 85% 30.17 in 1.5 mi WNW 5.8 mph - N/A Snow Light Snow
9:15 AM 12.2 °F 4.3 °F 8.6 °F 85% 30.16 in 1.0 mi NNW 4.6 mph - N/A Snow Light Snow
9:35 AM 14.0 °F 3.9 °F 6.8 °F 73% 30.17 in 2.5 mi NNW 6.9 mph - N/A Snow Light Snow
9:55 AM 12.2 °F -1.8 °F 5.0 °F 73% 30.17 in 10.0 mi North 11.5 mph 16.1 mph N/A   Overcast
10:15 AM 12.2 °F -0.2 °F 3.2 °F 67% 30.17 in 10.0 mi NNW 9.2 mph - N/A   Overcast
10:35 AM 12.2 °F -1.0 °F 5.0 °F 73% 30.18 in 10.0 mi North 10.4 mph - N/A   Overcast
10:55 AM 14.0 °F 5.1 °F 5.0 °F 67% 30.20 in 7.0 mi NNW 5.8 mph - N/A   Overcast
11:15 AM 14.0 °F 6.5 °F 5.0 °F 67% 30.20 in 7.0 mi NNW 4.6 mph - N/A   Overcast
11:35 AM 14.0 °F 2.9 °F 5.0 °F 67% 30.19 in 10.0 mi North 8.1 mph - N/A   Overcast
11:55 AM 14.0 °F 2.9 °F 5.0 °F 67% 30.19 in 10.0 mi NNW 8.1 mph - N/A   Overcast
12:15 PM 14.0 °F 6.5 °F 3.2 °F 62% 30.20 in 10.0 mi North 4.6 mph - N/A   Overcast
12:35 PM 14.0 °F 5.1 °F 3.2 °F 62% 30.20 in 10.0 mi North 5.8 mph - N/A   Overcast
12:55 PM 14.0 °F 2.9 °F 3.2 °F 62% 30.19 in 10.0 mi North 8.1 mph - N/A   Overcast
1:15 PM 14.0 °F 2.9 °F 3.2 °F 62% 30.18 in 10.0 mi North 8.1 mph - N/A   Mostly Cloudy
1:35 PM 17.6 °F 9.3 °F 3.2 °F 53% 30.18 in 10.0 mi North 5.8 mph - N/A   Mostly Cloudy
1:55 PM 17.6 °F 8.2 °F 3.2 °F 53% 30.18 in 10.0 mi North 6.9 mph - N/A   Scattered Clouds
2:15 PM 17.6 °F 6.4 °F 3.2 °F 53% 30.18 in 10.0 mi North 9.2 mph - N/A   Scattered Clouds
2:55 PM 19.4 °F 10.4 °F 1.4 °F 46% 30.16 in 10.0 mi NNW 6.9 mph - N/A   Clear
3:15 PM 19.4 °F 10.4 °F 1.4 °F 46% 30.16 in 10.0 mi NNW 6.9 mph - N/A   Clear
3:35 PM 19.4 °F 10.4 °F 1.4 °F 46% 30.15 in 10.0 mi North 6.9 mph - N/A   Clear
3:55 PM 19.4 °F 10.4 °F 1.4 °F 46% 30.15 in 10.0 mi North 6.9 mph - N/A   Clear
4:15 PM 19.4 °F 12.8 °F 3.2 °F 49% 30.15 in 10.0 mi North 4.6 mph - N/A   Clear
4:35 PM 19.4 °F 10.4 °F 1.4 °F 46% 30.13 in 10.0 mi North 6.9 mph - N/A   Clear
4:55 PM 17.6 °F 8.2 °F 1.4 °F 49% 30.11 in 10.0 mi North 6.9 mph - N/A   Clear
5:15 PM 17.6 °F 7.3 °F -0.4 °F 45% 30.11 in 10.0 mi North 8.1 mph - N/A   Clear
5:35 PM 17.6 °F 10.7 °F -0.4 °F 45% 30.11 in 10.0 mi North 4.6 mph - N/A   Clear
5:55 PM 17.6 °F 10.7 °F -0.4 °F 45% 30.11 in 10.0 mi North 4.6 mph - N/A   Clear
6:15 PM 17.6 °F 10.7 °F -0.4 °F 45% 30.12 in 10.0 mi North 4.6 mph - N/A   Clear
6:35 PM 15.8 °F 10.2 °F -0.4 °F 49% 30.11 in 10.0 mi North 3.5 mph - N/A   Clear
6:55 PM 15.8 °F 6.1 °F 1.4 °F 53% 30.11 in 10.0 mi NNE 6.9 mph - N/A   Clear
7:15 PM 14.0 °F 8.2 °F -0.4 °F 53% 30.11 in 10.0 mi NE 3.5 mph - N/A   Clear
7:35 PM 14.0 °F 6.5 °F -0.4 °F 53% 30.10 in 10.0 mi North 4.6 mph - N/A   Clear
7:55 PM 14.0 °F 8.2 °F -0.4 °F 53% 30.10 in 10.0 mi NNE 3.5 mph - N/A   Clear
8:15 PM 14.0 °F 6.5 °F -0.4 °F 53% 30.10 in 10.0 mi NE 4.6 mph - N/A   Clear
8:35 PM 12.2 °F 4.3 °F -0.4 °F 57% 30.10 in 10.0 mi NE 4.6 mph - N/A   Clear
8:55 PM 12.2 °F 2.9 °F -0.4 °F 57% 30.10 in 10.0 mi NNE 5.8 mph - N/A   Clear
9:15 PM 12.2 °F 2.9 °F 1.4 °F 62% 30.10 in 10.0 mi NE 5.8 mph - N/A   Clear
9:35 PM 12.2 °F 1.7 °F 1.4 °F 62% 30.11 in 10.0 mi ENE 6.9 mph - N/A   Clear
9:55 PM 12.2 °F 0.7 °F 1.4 °F 62% 30.10 in 10.0 mi ENE 8.1 mph - N/A   Clear
10:15 PM 10.4 °F -2.4 °F 1.4 °F 67% 30.09 in 10.0 mi ENE 9.2 mph - N/A   Clear
10:35 PM 10.4 °F -2.4 °F 1.4 °F 67% 30.08 in 10.0 mi ENE 9.2 mph - N/A   Clear
10:55 PM 10.4 °F -3.3 °F 1.4 °F 67% 30.08 in 10.0 mi NE 10.4 mph - N/A   Clear
11:15 PM 10.4 °F -2.4 °F 1.4 °F 67% 30.07 in 10.0 mi NE 9.2 mph - N/A   Clear
11:35 PM 8.6 °F -4.7 °F 1.4 °F 73% 30.06 in 10.0 mi ENE 9.2 mph - N/A   Clear
11:55 PM 8.6 °F -3.7 °F 1.4 °F 73% 30.05 in 10.0 mi ENE 8.1 mph - N/A   Clear